Regional Weather Roundup
Issued by NWS Sterling, VA

Home | Current Version | Previous Version | Text Only | Print | Product List | Glossary Off
Versions: 1 2 3 4 5 6 7 8 9 10 11 12 13 14 15 16 17 18 19 20 21 22 23 24 25 26 27 28 29 30 31 32 33 34 35 36 37 38 39 40 41 42 43 44 45 46 47 48 49 50

000
ASUS41 KLWX 221410
RWRLWX

REGIONAL WEATHER ROUNDUP
NATIONAL WEATHER SERVICE BALTIMORE MD/WASHINGTON DC
1000 AM EDT TUE JUL 22 2014

Note: "FAIR" indicates few or no clouds below 12,000 feet
with no significant weather and/or obstructions to visibility.
 TC=TEMPERATURE CELSIUS

 * =Non NWS site. Station does not report precipitation (e.g. rain,
    snow, etc.), thunder, or fog.

DCZ001-MDZ009-015-VAZ040>042-051-053>054-221500-
WASHINGTON METRO
  /KDAA//-FT BELVOIR

CITY           SKY/WX    TMP DP  RH WIND       PRES   REMARKS
WASHINGTON NAT PTSUNNY   80  70  71 S8        30.20S
DULLES         CLOUDY    75  70  83 SW6       30.20S
ANDREWS AFB    SUNNY     79  70  75 SE5       30.20S
QUANTICO       PTSUNNY   78  70  76 S7        30.20F
COLLEGE PARK*  CLOUDY    81  72  74 SE3       30.19S
LEESBURG*      CLOUDY    75  73  94 SW3       30.21S
MANASSAS*      CLOUDY    75  73  94 S7        30.20S
GAITHERSBURG*  CLOUDY    73  70  88 CALM      30.24S

$$

MDZ006>007-011-014-221500-
BALTIMORE METRO

CITY           SKY/WX    TMP DP  RH WIND       PRES   REMARKS
BWI AIRPORT    CLOUDY    76  69  79 S3        30.19F
MD SCIENCE CTR   N/A     78  69  73 MISG      30.19F
MARTIN STATE   PTSUNNY   79  73  83 SE6       30.20F
ANNAPOLIS      CLOUDY    77  71  82 SE8       30.19F
FORT MEADE*    CLOUDY    73  70  88 CALM      30.22S

$$

MDZ012-015-019>023-221500-
MARYLAND EASTERN SHORE

CITY           SKY/WX    TMP DP  RH WIND       PRES   REMARKS
OCEAN CITY     MOSUNNY   76  67  73 E6        30.20F
SALISBURY      NOT AVBL
BAY BRIDGE AP*   N/A     77  68  73 SE6       30.20S
CAMBRIDGE*     MOSUNNY   79  64  61 CALM      30.19F
EASTON*        SUNNY     82  64  54 SE6       30.23F

$$

MDZ017>025-221500-
SOUTHERN MARYLAND

CITY           SKY/WX    TMP DP  RH WIND       PRES   REMARKS
PATUXENT RIVER PTSUNNY   78  70  76 SE6       30.19F
ST INIGOES     MOSUNNY   79  68  69 E3        30.18F
LEONARDTOWN*   CLOUDY    77  68  73 CALM      30.21S

$$

MDZ003>005-221500-
NORTH CENTRAL MARYLAND

CITY           SKY/WX    TMP DP  RH WIND       PRES   REMARKS
FREDERICK*     CLOUDY    79  73  83 S3        30.22S
HAGERSTOWN APT CLOUDY    76  69  79 CALM      30.19F
WESTMINSTER*   CLOUDY    75  73  94 S5        30.21S

$$

MDZ501>502-221500-
WESTERN MARYLAND

CITY           SKY/WX    TMP DP  RH WIND       PRES   REMARKS
OAKLAND*       SUNNY     72  68  88 W5        30.26F
CUMBERLAND*    PTSUNNY   81  72  74 CALM      30.22F

$$

VAZ025>031-221500-
SHENANDOAH VALLEY

CITY           SKY/WX    TMP DP  RH WIND       PRES   REMARKS
WINCHESTER*    CLOUDY    77  70  78 SE3       30.19F
STAUNTON*      PTSUNNY   76  68  74 S3        30.23S

$$

WVZ021-048>050-054>055-221500-
EASTERN WEST VIRGINIA PANHANDLE

CITY           SKY/WX    TMP DP  RH WIND       PRES   REMARKS
MARTINSBURG    PTSUNNY   79  68  69 S6        30.19F
PETERSBURG*    MOSUNNY   76  62  61 CALM      30.19F

$$

VAZ036>039-050-221500-
CENTRAL FOOTHILLS

CITY           SKY/WX    TMP DP  RH WIND       PRES   REMARKS
CHARLOTTESVILL CLOUDY    76  70  82 S5        30.20S
ORANGE*        PTSUNNY   77  70  78 SE5       30.21S

$$

VAZ055>057-221500-
NORTH AND CENTRAL PIEDMONT

CITY           SKY/WX    TMP DP  RH WIND       PRES   REMARKS
FREDERICKSBRG* CLOUDY    78  72  81 S5        30.19S
STAFFORD*      CLOUDY    76  75  99 SW3       30.23F

$$

NCZ024-NYZ072-PAZ021-071-VAZ022-071-221500-
OTHER REGIONAL OBSERVATIONS

CITY           SKY/WX    TMP DP  RH WIND       PRES   REMARKS
NEW YORK CITY  SUNNY     78  64  61 CALM      30.19F
PHILADELPHIA   MOSUNNY   78  67  68 W7        30.19F
PITTSBURGH     MOSUNNY   78  69  73 VRB3      30.16F
ROANOKE        CLOUDY    75  69  81 SE3       30.24S
RICHMOND       CLOUDY    80  67  64 VRB3      30.19F
RALEIGH        CLOUDY    76  70  82 E5        30.18S

$$

ANZ530>537-221500-
MARINE OBSERVATIONS

STATION/POSITION TIME  TEMP    WIND        PRES
                       AIR SEA DIR/SP/G
                 (UTC) (F)     (DEG/KT/KT) (MB)
THOMAS PT LIGHT  1400   76 79  150/  5/  6 1023.0S
BALT KEY BRIDGE  1400          120/  4/  5 1022.2S
COVE POINT       1400   75     150/  4/  5 1022.4S
LEWISETTA        1400   77 79  110/  7/  8 1022.1S
SOLOMONS ISLAND  1400      81                N/A
PINEY POINT      1400          120/  5/  6   N/A

$$




USA.gov is the U.S. government's official web portal to all federal, state and local government web resources and services.